Radiation Dose measured at Intake/Vertical shaft monitor
Date,Time,Intake(cps),Vertical shaft(cps),Rain
2023/10/04,00:00,6.7,-,No
2023/10/04,00:10,6.9,-,No
2023/10/04,00:20,7.0,-,No
2023/10/04,00:30,6.9,-,No
2023/10/04,00:40,6.8,-,No
2023/10/04,00:50,6.9,-,No
2023/10/04,01:00,6.9,-,No
2023/10/04,01:10,6.8,-,No
2023/10/04,01:20,6.8,-,Yes
2023/10/04,01:30,6.8,-,Yes
2023/10/04,01:40,6.8,-,Yes
2023/10/04,01:50,7.0,-,Yes
2023/10/04,02:00,6.9,-,Yes
2023/10/04,02:10,6.7,-,No
2023/10/04,02:20,6.9,-,No
2023/10/04,02:30,7.0,-,No
2023/10/04,02:40,6.9,-,No
2023/10/04,02:50,6.9,-,No
2023/10/04,03:00,6.8,-,No
2023/10/04,03:10,6.8,-,No
2023/10/04,03:20,7.0,-,No
2023/10/04,03:30,7.1,-,No
2023/10/04,03:40,6.8,-,Yes
2023/10/04,03:50,6.9,-,Yes
2023/10/04,04:00,6.9,-,Yes
2023/10/04,04:10,7.0,-,Yes
2023/10/04,04:20,7.0,-,Yes
2023/10/04,04:30,7.0,-,Yes
2023/10/04,04:40,7.0,-,Yes
2023/10/04,04:50,7.0,-,Yes
2023/10/04,05:00,7.0,-,Yes
2023/10/04,05:10,7.0,-,Yes
2023/10/04,05:20,6.9,-,Yes
2023/10/04,05:30,7.0,-,Yes
2023/10/04,05:40,7.0,-,Yes
2023/10/04,05:50,7.0,-,Yes
2023/10/04,06:00,7.0,-,Yes
2023/10/04,06:10,7.0,-,Yes
2023/10/04,06:20,7.1,-,Yes
2023/10/04,06:30,6.9,-,Yes
2023/10/04,06:40,7.1,-,Yes
2023/10/04,06:50,6.9,-,Yes
2023/10/04,07:00,7.1,-,Yes
2023/10/04,07:10,7.1,-,Yes
2023/10/04,07:20,7.0,-,Yes
2023/10/04,07:30,6.9,-,Yes
2023/10/04,07:40,6.9,-,Yes
2023/10/04,07:50,7.0,-,Yes
2023/10/04,08:00,7.2,-,Yes
2023/10/04,08:10,7.1,-,Yes
2023/10/04,08:20,7.0,-,Yes
2023/10/04,08:30,6.9,-,Yes
2023/10/04,08:40,7.0,-,Yes
2023/10/04,08:50,7.0,-,Yes
2023/10/04,09:00,6.8,-,Yes
2023/10/04,09:10,6.9,-,Yes
2023/10/04,09:20,7.1,-,Yes
2023/10/04,09:30,7.0,-,Yes
2023/10/04,09:40,7.0,-,Yes
2023/10/04,09:50,7.0,-,Yes
2023/10/04,10:00,7.0,-,Yes
2023/10/04,10:10,7.1,-,Yes
2023/10/04,10:20,7.0,-,Yes
2023/10/04,10:30,6.9,-,Yes
2023/10/04,10:40,6.9,-,Yes
2023/10/04,10:50,6.8,-,Yes
2023/10/04,11:00,7.0,-,Yes
2023/10/04,11:10,6.9,-,Yes
2023/10/04,11:20,7.0,-,Yes
2023/10/04,11:30,6.8,-,Yes
2023/10/04,11:40,6.9,-,No
2023/10/04,11:50,7.0,-,No
2023/10/04,12:00,6.8,-,No
2023/10/04,12:10,7.0,-,No
2023/10/04,12:20,7.0,-,Yes
2023/10/04,12:30,7.0,-,No
2023/10/04,12:40,7.0,-,No
2023/10/04,12:50,7.1,-,No
2023/10/04,13:00,6.9,-,No
2023/10/04,13:10,7.1,-,No
2023/10/04,13:20,7.1,-,No
2023/10/04,13:30,6.9,-,No
2023/10/04,13:40,6.9,-,No
2023/10/04,13:50,6.8,-,No
2023/10/04,14:00,6.9,-,No
2023/10/04,14:10,6.7,-,No
2023/10/04,14:20,7.0,-,No
2023/10/04,14:30,6.9,-,No
2023/10/04,14:40,7.0,-,No
2023/10/04,14:50,6.8,-,Yes
2023/10/04,15:00,6.8,-,No
2023/10/04,15:10,6.9,-,Yes
2023/10/04,15:20,6.8,-,Yes
2023/10/04,15:30,7.1,-,No
2023/10/04,15:40,6.9,-,Yes
2023/10/04,15:50,7.0,-,Yes
2023/10/04,16:00,6.9,-,Yes
2023/10/04,16:10,7.0,-,No
2023/10/04,16:20,6.9,-,No
2023/10/04,16:30,6.8,-,Yes
2023/10/04,16:40,7.0,-,Yes
2023/10/04,16:50,7.0,-,No
2023/10/04,17:00,7.0,-,No
2023/10/04,17:10,7.0,-,No
2023/10/04,17:20,7.0,-,No
2023/10/04,17:30,6.9,-,No
2023/10/04,17:40,7.0,-,Yes
2023/10/04,17:50,7.0,-,Yes
2023/10/04,18:00,6.8,-,No
2023/10/04,18:10,6.5,-,Yes
2023/10/04,18:20,6.1,-,Yes
2023/10/04,18:30,6.2,-,Yes
2023/10/04,18:40,6.1,-,Yes
2023/10/04,18:50,6.1,-,Yes
2023/10/04,19:00,5.9,-,No
2023/10/04,19:10,5.7,-,No
2023/10/04,19:20,5.4,-,No
2023/10/04,19:30,5.8,-,No
2023/10/04,19:40,5.6,-,No
2023/10/04,19:50,5.6,-,No
2023/10/04,20:00,5.7,-,No
2023/10/04,20:10,5.6,-,No
2023/10/04,20:20,5.6,-,No
2023/10/04,20:30,5.8,-,No
2023/10/04,20:40,5.5,-,No
2023/10/04,20:50,5.8,-,No
2023/10/04,21:00,5.6,-,No
2023/10/04,21:10,5.6,-,No
2023/10/04,21:20,5.5,-,No
2023/10/04,21:30,5.7,-,No
2023/10/04,21:40,5.6,-,No
2023/10/04,21:50,5.5,-,No
2023/10/04,22:00,5.7,-,No
2023/10/04,22:10,5.5,-,No
2023/10/04,22:20,5.6,-,No
2023/10/04,22:30,5.5,-,No
2023/10/04,22:40,5.7,-,No
2023/10/04,22:50,5.7,-,No
2023/10/04,23:00,5.7,-,No
2023/10/04,23:10,5.6,-,No
2023/10/04,23:20,5.6,-,No
2023/10/04,23:30,5.6,-,No
2023/10/04,23:40,5.7,-,No
2023/10/04,23:50,5.5,-,No
